Location: Mahannah Oil Field
(37.4664°N, 96.6003°W)
Time: 08:26:20
(UTC+00:00)

Courier 1B - Pass Details

Date: 29 January 2021
Orbit: 962 x 1209 km, 28.3° (Epoch: 02 March)

Event Time Altitude Azimuth Distance (km) Brightness Sun altitude
Rises 07:14:37 0° 262° (W) 3,753 - -68.9°
Reaches altitude 10° 07:17:39 10° 252° (WSW) 2,767 - -68.7°
Maximum altitude 07:23:23 31° 193° (SSW) 1,629 - -68.1°
Drops below altitude 10° 07:28:58 10° 133° (SE) 2,686 - -67.6°
Sets 07:31:52 0° 123° (ESE) 3,628 - -67.3°
